sampling_time,wmo_synop_id,msc_id,stn_nam,stn_elev,lat,long,stn_typ,date_tm,rpt_typ,result_time,crnt_buoy_lat,crnt_buoy_lat_qa_summary,crnt_buoy_long,crnt_buoy_long_qa_summary,avg_air_temp_pst10mts,avg_air_temp_pst10mts_qa_summary,avg_sea_sfc_temp_pst10mts,avg_sea_sfc_temp_pst10mts_qa_summary,avg_batry_volt_pst10mts,avg_batry_volt_pst10mts_qa_summary,avg_solr_panl_crnt_pst10mts,avg_solr_panl_crnt_pst10mts_qa_summary,avg_wtr_lvl_snsr_volt_pst10mts,avg_wtr_lvl_snsr_volt_pst10mts_qa_summary,avg_wave_hgt_pst20mts,avg_wave_hgt_pst20mts_qa_summary,pk_wave_hgt_pst20mts,pk_wave_hgt_pst20mts_qa_summary,sig_wave_pd_pst20mts,sig_wave_pd_pst20mts_qa_summary,sig_wave_hgt_pst20mts,sig_wave_hgt_pst20mts_qa_summary,avg_max_wave_hgt_pst20mts,avg_max_wave_hgt_pst20mts_qa_summary,avg_max_wave_pd_pst20mts,avg_max_wave_pd_pst20mts_qa_summary,avg_wave_pd_pst20mts,avg_wave_pd_pst20mts_qa_summary,pk_wave_pd_pst20mts,pk_wave_pd_pst20mts_qa_summary,avg_stn_pres_pst10mts,avg_stn_pres_pst10mts_qa_summary,avg_wnd_spd_pst10mts,avg_wnd_spd_pst10mts_qa_summary,avg_wnd_dir_pst10mts,avg_wnd_dir_pst10mts_qa_summary,max_avg_wnd_spd_pst10mts,max_avg_wnd_spd_pst10mts_qa_summary,wnd_snsr_vert_disp,wnd_snsr_vert_disp_qa_summary,pres_tend_char_pst3hrs,pres_tend_char_pst3hrs_data_flag,pres_tend_amt_pst3hrs,pres_tend_amt_pst3hrs_data_flag,avg_mslp_pst10mts,avg_mslp_pst10mts_data_flag,avg_stn_pres_pst10mts_1,avg_stn_pres_pst10mts_1_qa_summary,avg_stn_pres_pst10mts_2,avg_stn_pres_pst10mts_2_qa_summary,avg_wnd_spd_pst10mts_1,avg_wnd_spd_pst10mts_1_qa_summary,avg_wnd_spd_pst10mts_2,avg_wnd_spd_pst10mts_2_qa_summary,avg_wnd_dir_pst10mts_1,avg_wnd_dir_pst10mts_1_qa_summary,avg_wnd_dir_pst10mts_2,avg_wnd_dir_pst10mts_2_qa_summary,max_avg_wnd_spd_pst10mts_1,max_avg_wnd_spd_pst10mts_1_qa_summary,max_avg_wnd_spd_pst10mts_2,max_avg_wnd_spd_pst10mts_2_qa_summary
2022-10-25T00:00:00Z,44489,9302001,WEST CHEDABUCTO BAY,0,45.48687,-61.14100000000001,18,2022-10-25T00:00:00.000Z,108,2022-10-25T00:03:01.041Z,45.48725,100,-61.14113,100,13.4,100,13.9,100,12.6,100,0.0,100,3.6,100,0.2,100,0.4,100,7.8,100,0.2,100,0.3,100,7.4,100,6.1,100,9.5,100,1028.0,100,12.2,100,149,100,14.8,100,5,100,8,1,-0.2,1,1028.0,1,1028.0,100,1028.0,100,12.2,100,12.2,100,149,100,153,100,14.8,100,14.8,100
2022-10-25T00:10:00Z,44489,9302001,WEST CHEDABUCTO BAY,0,45.48687,-61.14100000000001,18,2022-10-25T00:10:00.000Z,110,2022-10-25T00:13:05.884Z,,-1,,-1,14.1,100,14.6,100,12.6,100,0.0,100,3.6,100,,-1,,-1,,-1,,-1,,-1,,-1,,-1,,-1,1028.1,100,11.9,100,165,100,13.7,100,5,100,0,1,0.0,1,1028.1,1,1028.1,100,1028.1,100,11.9,100,12.2,100,165,100,169,100,13.7,100,13.3,100
2022-10-25T00:20:00Z,44489,9302001,WEST CHEDABUCTO BAY,0,45.48687,-61.14100000000001,18,2022-10-25T00:20:00.000Z,110,2022-10-25T00:23:02.381Z,45.48727,100,-61.14113,100,13.3,100,13.9,100,12.6,100,0.0,100,3.6,100,,-1,,-1,,-1,,-1,,-1,,-1,,-1,,-1,1028.0,100,12.2,100,164,100,14.0,100,5,100,8,1,-0.2,1,1028.0,1,1028.0,100,1028.0,100,12.2,100,12.2,100,164,100,168,100,14.0,100,14.4,100
2022-10-25T00:30:00Z,44489,9302001,WEST CHEDABUCTO BAY,0,45.48687,-61.14100000000001,18,2022-10-25T00:30:00.000Z,110,2022-10-25T00:33:01.960Z,45.48725,100,-61.141130000000004,100,13.2,100,13.9,100,12.6,100,0.0,100,3.6,100,,-1,,-1,,-1,,-1,,-1,,-1,,-1,,-1,1027.9,100,11.9,100,161,100,13.3,100,5,100,8,1,-0.4,1,1027.9,1,1027.9,100,1027.9,100,11.9,100,11.9,100,161,100,165,100,13.3,100,13.7,100
2022-10-25T00:40:00Z,44489,9302001,WEST CHEDABUCTO BAY,0,45.48687,-61.14100000000001,18,2022-10-25T00:40:00.000Z,110,2022-10-25T00:43:05.204Z,45.48722,100,-61.14113,100,13.2,100,13.9,100,12.6,100,0.0,100,3.6,100,,-1,,-1,,-1,,-1,,-1,,-1,,-1,,-1,1028.0,100,10.4,100,161,100,12.6,100,5,100,8,1,-0.3,1,1028.0,1,1028.0,100,1028.0,100,10.4,100,10.4,100,161,100,165,100,12.6,100,12.6,100
2022-10-25T00:50:00Z,44489,9302001,WEST CHEDABUCTO BAY,0,45.48687,-61.14100000000001,18,2022-10-25T00:50:00.000Z,110,2022-10-25T00:53:19.769Z,45.48725,100,-61.14115,100,13.0,100,13.9,100,12.6,100,0.0,100,3.6,100,,-1,,-1,,-1,,-1,,-1,,-1,,-1,,-1,1028.0,100,9.7,100,164,100,10.8,100,5,100,8,1,-0.4,1,1028.0,1,1028.0,100,1028.0,100,9.7,100,9.7,100,164,100,168,100,10.8,100,11.2,100
2022-10-25T01:00:00Z,44489,9302001,WEST CHEDABUCTO BAY,0,45.48687,-61.14100000000001,18,2022-10-25T01:00:00.000Z,108,2022-10-25T01:03:14.790Z,45.48727,100,-61.14112,100,13.1,100,13.9,100,12.5,100,0.0,100,3.6,100,0.1,100,0.3,100,8.1,100,0.2,100,0.3,100,7.7,100,6.2,100,9.1,100,1028.0,100,10.8,100,184,100,12.6,100,5,100,6,1,-0.4,1,1028.0,1,1028.0,100,1028.0,100,10.8,100,10.8,100,184,100,189,100,12.6,100,12.6,100
2022-10-25T01:10:00Z,44489,9302001,WEST CHEDABUCTO BAY,0,45.48687,-61.14100000000001,18,2022-10-25T01:10:00.000Z,110,2022-10-25T01:16:26.250Z,45.48723,100,-61.141130000000004,100,13.1,100,13.9,100,12.6,100,0.0,100,3.6,100,,-1,,-1,,-1,,-1,,-1,,-1,,-1,,-1,1028.1,100,10.8,100,186,100,12.6,100,5,100,7,1,-0.2,1,1028.1,1,1028.1,100,1028.1,100,10.8,100,10.8,100,186,100,190,100,12.6,100,12.6,100
2022-10-25T01:20:00Z,44489,9302001,WEST CHEDABUCTO BAY,0,45.48687,-61.14100000000001,18,2022-10-25T01:20:00.000Z,110,2022-10-25T01:23:21.936Z,45.48725,100,-61.14112,100,13.1,100,13.9,100,12.6,100,0.0,100,3.6,100,,-1,,-1,,-1,,-1,,-1,,-1,,-1,,-1,1027.9,100,6.8,100,164,100,9.7,100,5,100,8,1,-0.2,1,1027.9,1,1027.9,100,1028.0,100,6.8,100,6.5,100,164,100,169,100,9.7,100,9.7,100
2022-10-25T01:30:00Z,44489,9302001,WEST CHEDABUCTO BAY,0,45.48687,-61.14100000000001,18,2022-10-25T01:30:00.000Z,110,2022-10-25T01:33:20.684Z,45.48725,100,-61.141119999999994,100,13.1,100,13.9,100,12.6,100,0.0,100,3.6,100,,-1,,-1,,-1,,-1,,-1,,-1,,-1,,-1,1027.9,100,7.9,100,141,100,9.0,100,5,100,8,1,-0.3,1,1027.9,1,1027.9,100,1027.9,100,7.9,100,7.9,100,141,100,146,100,9.0,100,9.4,100
2022-10-25T01:40:00Z,44489,9302001,WEST CHEDABUCTO BAY,0,45.48687,-61.14100000000001,18,2022-10-25T01:40:00.000Z,110,2022-10-25T01:43:22.902Z,45.48723,100,-61.14112,100,13.1,100,13.9,100,12.5,100,0.0,100,3.6,100,,-1,,-1,,-1,,-1,,-1,,-1,,-1,,-1,1027.8,100,7.9,100,142,100,9.4,100,5,100,8,1,-0.4,1,1027.8,1,1027.8,100,1027.8,100,7.9,100,7.9,100,142,100,147,100,9.4,100,9.4,100
2022-10-25T01:50:00Z,44489,9302001,WEST CHEDABUCTO BAY,0,45.48687,-61.14100000000001,18,2022-10-25T01:50:00.000Z,110,2022-10-25T01:53:25.145Z,45.48725,100,-61.14115,100,13.2,100,13.9,100,12.5,100,0.0,100,3.6,100,,-1,,-1,,-1,,-1,,-1,,-1,,-1,,-1,1027.6,100,8.6,100,147,100,10.4,100,5,100,8,1,-0.7,1,1027.6,1,1027.6,100,1027.6,100,8.6,100,8.6,100,147,100,152,100,10.4,100,10.4,100
2022-10-25T02:00:00Z,44489,9302001,WEST CHEDABUCTO BAY,0,45.48687,-61.14100000000001,18,2022-10-25T02:00:00.000Z,108,2022-10-25T02:03:24.881Z,45.48723,100,-61.14113,100,13.1,100,13.9,100,12.5,100,0.0,100,3.6,100,0.1,100,0.3,100,7.8,100,0.2,100,0.3,100,7.7,100,6.3,100,9.5,100,1027.6,100,6.5,100,163,100,8.6,100,5,100,8,1,-0.7,1,1027.6,1,1027.6,100,1027.6,100,6.5,100,6.5,100,163,100,168,100,8.6,100,8.6,100
2022-10-25T02:10:00Z,44489,9302001,WEST CHEDABUCTO BAY,0,45.48687,-61.14100000000001,18,2022-10-25T02:10:00.000Z,110,2022-10-25T02:16:44.186Z,45.48725,100,-61.141130000000004,100,13.1,100,13.9,100,12.6,100,0.0,100,3.6,100,,-1,,-1,,-1,,-1,,-1,,-1,,-1,,-1,1027.9,100,3.6,100,217,100,4.7,100,5,100,8,1,-0.2,1,1027.9,1,1027.9,100,1027.9,100,3.6,100,3.6,100,217,100,222,100,4.7,100,4.7,100
2022-10-25T02:20:00Z,44489,9302001,WEST CHEDABUCTO BAY,0,45.48687,-61.14100000000001,18,2022-10-25T02:20:00.000Z,110,2022-10-25T02:23:44.236Z,45.48728,100,-61.14113,100,13.2,100,13.9,100,12.6,100,0.0,100,3.6,100,,-1,,-1,,-1,,-1,,-1,,-1,,-1,,-1,1028.1,100,3.2,100,273,100,4.7,100,5,100,5,1,-0.1,1,1028.1,1,1028.1,100,1028.1,100,3.2,100,3.2,100,273,100,276,100,4.7,100,4.7,100
2022-10-25T02:30:00Z,44489,9302001,WEST CHEDABUCTO BAY,0,45.48687,-61.14100000000001,18,2022-10-25T02:30:00.000Z,110,2022-10-25T02:32:46.807Z,45.48723,100,-61.141119999999994,100,13.2,100,13.9,100,12.6,100,0.0,100,3.6,100,,-1,,-1,,-1,,-1,,-1,,-1,,-1,,-1,1028.2,100,6.5,100,338,100,9.7,100,5,100,5,1,-0.2,1,1028.2,1,1028.2,100,1028.2,100,6.5,100,6.5,100,338,100,341,100,9.7,100,9.7,100
2022-10-25T02:40:00Z,44489,9302001,WEST CHEDABUCTO BAY,0,45.48687,-61.14100000000001,18,2022-10-25T02:40:00.000Z,110,2022-10-25T02:42:47.843Z,45.4872,100,-61.14113,100,13.2,100,13.9,100,12.5,100,0.0,100,3.6,100,,-1,,-1,,-1,,-1,,-1,,-1,,-1,,-1,1028.2,100,7.9,100,358,100,9.4,100,5,100,5,1,0.0,1,1028.2,1,1028.2,100,1028.2,100,7.9,100,7.9,100,358,100,1,100,9.4,100,9.4,100
2022-10-25T02:50:00Z,44489,9302001,WEST CHEDABUCTO BAY,0,45.48687,-61.14100000000001,18,2022-10-25T02:50:00.000Z,110,2022-10-25T02:52:46.075Z,45.487320000000004,100,-61.14115,100,13.2,100,13.9,100,12.5,100,0.0,100,3.6,100,,-1,,-1,,-1,,-1,,-1,,-1,,-1,,-1,1028.2,100,5.0,100,23,100,7.2,100,5,100,5,1,0.0,1,1028.2,1,1028.2,100,1028.2,100,5.0,100,5.0,100,23,100,26,100,7.2,100,7.2,100
2022-10-25T03:00:00Z,44489,9302001,WEST CHEDABUCTO BAY,0,45.48687,-61.14100000000001,18,2022-10-25T03:00:00.000Z,108,2022-10-25T03:02:47.523Z,45.48725,100,-61.14113,100,13.1,100,13.9,100,12.5,100,0.0,100,3.6,100,0.1,100,0.4,100,7.9,100,0.2,100,0.3,100,8.0,100,6.4,100,10.0,100,1028.1,100,3.6,100,34,100,6.1,100,5,100,3,1,0.2,1,1028.1,1,1028.1,100,1028.1,100,3.6,100,3.6,100,34,100,36,100,6.1,100,6.1,100
2022-10-25T03:10:00Z,44489,9302001,WEST CHEDABUCTO BAY,0,45.48687,-61.14100000000001,18,2022-10-25T03:10:00.000Z,110,2022-10-25T03:16:03.524Z,45.48725,100,-61.14115,100,13.1,100,13.9,100,12.5,100,0.0,100,3.6,100,,-1,,-1,,-1,,-1,,-1,,-1,,-1,,-1,1028.0,100,4.7,100,48,100,6.1,100,5,100,5,1,-0.1,1,1028.0,1,1028.0,100,1028.0,100,4.7,100,4.7,100,48,100,50,100,6.1,100,6.1,100
2022-10-25T03:20:00Z,44489,9302001,WEST CHEDABUCTO BAY,0,45.48687,-61.14100000000001,18,2022-10-25T03:20:00.000Z,110,2022-10-25T03:23:02.255Z,45.4873,100,-61.14118000000001,100,13.1,100,13.9,100,12.5,100,0.0,100,3.6,100,,-1,,-1,,-1,,-1,,-1,,-1,,-1,,-1,1027.9,100,4.0,100,48,100,4.3,100,5,100,8,1,-0.1,1,1027.9,1,1027.9,100,1027.9,100,4.0,100,4.0,100,48,100,50,100,4.3,100,4.3,100
2022-10-25T03:30:00Z,44489,9302001,WEST CHEDABUCTO BAY,0,45.48687,-61.14100000000001,18,2022-10-25T03:30:00.000Z,110,2022-10-25T03:34:02.617Z,45.48722,100,-61.1411,100,13.1,100,13.9,100,12.5,100,0.0,100,3.6,100,,-1,,-1,,-1,,-1,,-1,,-1,,-1,,-1,1027.7,100,5.4,100,68,100,6.8,100,5,100,8,1,-0.2,1,1027.7,1,1027.7,100,1027.7,100,5.4,100,5.4,100,68,100,70,100,6.8,100,6.8,100
2022-10-25T03:40:00Z,44489,9302001,WEST CHEDABUCTO BAY,0,45.48687,-61.14100000000001,18,2022-10-25T03:40:00.000Z,110,2022-10-25T03:43:05.773Z,45.48725,100,-61.14113,100,13.1,100,13.8,100,12.5,100,0.0,100,3.6,100,,-1,,-1,,-1,,-1,,-1,,-1,,-1,,-1,1027.7,100,4.3,100,71,100,6.5,100,5,100,8,1,-0.2,1,1027.7,1,1027.7,100,1027.8,100,4.3,100,4.3,100,71,100,73,100,6.5,100,6.5,100
2022-10-25T03:50:00Z,44489,9302001,WEST CHEDABUCTO BAY,0,45.48687,-61.14100000000001,18,2022-10-25T03:50:00.000Z,110,2022-10-25T03:53:09.197Z,45.48723,100,-61.141130000000004,100,13.1,100,13.8,100,12.5,100,0.0,100,3.6,100,,-1,,-1,,-1,,-1,,-1,,-1,,-1,,-1,1027.7,100,3.2,100,73,100,4.3,100,5,100,7,1,-0.3,1,1027.7,1,1027.7,100,1027.7,100,3.2,100,3.2,100,73,100,75,100,4.3,100,4.3,100
2022-10-25T04:00:00Z,44489,9302001,WEST CHEDABUCTO BAY,0,45.48687,-61.14100000000001,18,2022-10-25T04:00:00.000Z,108,2022-10-25T04:03:10.537Z,45.48723,100,-61.14113,100,13.1,100,13.8,100,12.5,100,0.0,100,3.6,100,0.1,100,0.4,100,7.8,100,0.2,100,0.2,100,8.2,100,6.1,100,8.7,100,1027.9,100,3.2,100,26,100,5.0,100,5,100,6,1,-0.1,1,1027.9,1,1027.9,100,1027.9,100,3.2,100,3.6,100,26,100,28,100,5.0,100,5.4,100
2022-10-25T04:10:00Z,44489,9302001,WEST CHEDABUCTO BAY,0,45.48687,-61.14100000000001,18,2022-10-25T04:10:00.000Z,110,2022-10-25T04:16:16.660Z,45.48725,100,-61.141130000000004,100,13.1,100,13.8,100,12.5,100,0.0,100,3.6,100,,-1,,-1,,-1,,-1,,-1,,-1,,-1,,-1,1028.2,100,2.9,100,314,100,5.4,100,5,100,3,1,0.1,1,1028.2,1,1028.2,100,1028.2,100,2.9,100,2.9,100,314,100,316,100,5.4,100,5.4,100
2022-10-25T04:20:00Z,44489,9302001,WEST CHEDABUCTO BAY,0,45.48687,-61.14100000000001,18,2022-10-25T04:20:00.000Z,110,2022-10-25T04:23:14.156Z,45.48727,100,-61.14113,100,13.1,100,13.8,100,12.5,100,0.0,100,3.6,100,,-1,,-1,,-1,,-1,,-1,,-1,,-1,,-1,1027.6,100,10.1,100,136,100,16.6,100,5,100,8,1,-0.3,1,1027.6,1,1027.6,100,1027.6,100,10.1,100,9.7,100,136,100,139,100,16.6,100,16.6,100
2022-10-25T04:30:00Z,44489,9302001,WEST CHEDABUCTO BAY,0,45.48687,-61.14100000000001,18,2022-10-25T04:30:00.000Z,110,2022-10-25T04:33:16.587Z,45.48725,100,-61.14115,100,13.1,100,13.8,100,12.5,100,0.0,100,3.6,100,,-1,,-1,,-1,,-1,,-1,,-1,,-1,,-1,1027.1,100,15.1,100,130,100,20.2,100,5,100,8,1,-0.8,1,1027.1,1,1027.1,100,1027.1,100,15.1,100,14.0,100,130,100,132,100,20.2,100,19.8,100
2022-10-25T04:40:00Z,44489,9302001,WEST CHEDABUCTO BAY,0,45.48687,-61.14100000000001,18,2022-10-25T04:40:00.000Z,110,2022-10-25T04:43:15.995Z,45.48723,100,-61.14115,100,13.1,100,13.8,100,12.5,100,0.0,100,3.6,100,,-1,,-1,,-1,,-1,,-1,,-1,,-1,,-1,1027.0,100,14.0,100,126,100,19.1,100,5,100,8,1,-0.7,1,1027.0,1,1027.0,100,1027.1,100,14.0,100,13.3,100,126,100,128,100,19.1,100,18.4,100
2022-10-25T04:50:00Z,44489,9302001,WEST CHEDABUCTO BAY,0,45.48687,-61.14100000000001,18,2022-10-25T04:50:00.000Z,110,2022-10-25T04:53:19.199Z,45.48727,100,-61.141169999999995,100,13.1,100,13.8,100,12.5,100,0.0,100,3.6,100,,-1,,-1,,-1,,-1,,-1,,-1,,-1,,-1,1026.8,100,14.0,100,127,100,18.4,100,5,100,8,1,-0.7,1,1026.8,1,1026.8,100,1026.9,100,14.0,100,13.3,100,127,100,129,100,18.4,100,18.0,100
2022-10-25T05:00:00Z,44489,9302001,WEST CHEDABUCTO BAY,0,45.48687,-61.14100000000001,18,2022-10-25T05:00:00.000Z,108,2022-10-25T05:03:17.145Z,45.48725,100,-61.14117,100,13.1,100,13.8,100,12.5,100,0.0,100,3.6,100,0.1,100,0.3,100,7.3,100,0.2,100,0.2,100,7.5,100,5.1,100,9.1,100,1026.7,100,13.0,100,115,100,15.1,100,5,100,8,1,-0.9,1,1026.7,1,1026.7,100,1026.7,100,13.0,100,12.6,100,115,100,117,100,15.1,100,14.8,100
2022-10-25T05:10:00Z,44489,9302001,WEST CHEDABUCTO BAY,0,45.48687,-61.14100000000001,18,2022-10-25T05:10:00.000Z,110,2022-10-25T05:16:29.653Z,45.48723,100,-61.14115,100,13.2,100,13.8,100,12.5,100,0.0,100,3.6,100,,-1,,-1,,-1,,-1,,-1,,-1,,-1,,-1,1026.6,100,11.5,100,98,100,14.8,100,5,100,8,1,-1.3,1,1026.6,1,1026.6,100,1026.6,100,11.5,100,11.2,100,98,100,100,100,14.8,100,14.8,100
2022-10-25T05:20:00Z,44489,9302001,WEST CHEDABUCTO BAY,0,45.48687,-61.14100000000001,18,2022-10-25T05:20:00.000Z,110,2022-10-25T05:23:31.296Z,45.48725,100,-61.14118000000001,100,13.2,100,13.8,100,12.5,100,0.0,100,3.6,100,,-1,,-1,,-1,,-1,,-1,,-1,,-1,,-1,1026.7,100,9.7,100,106,100,11.5,100,5,100,8,1,-1.4,1,1026.7,1,1026.7,100,1026.7,100,9.7,100,9.4,100,106,100,109,100,11.5,100,11.5,100
2022-10-25T05:30:00Z,44489,9302001,WEST CHEDABUCTO BAY,0,45.48687,-61.14100000000001,18,2022-10-25T05:30:00.000Z,110,2022-10-25T05:33:32.498Z,45.48727,100,-61.1412,100,13.2,100,13.8,100,12.5,100,0.0,100,3.6,100,,-1,,-1,,-1,,-1,,-1,,-1,,-1,,-1,1026.7,100,8.6,100,111,100,11.2,100,5,100,6,1,-1.4,1,1026.7,1,1026.7,100,1026.8,100,8.6,100,8.3,100,111,100,114,100,11.2,100,10.4,100
2022-10-25T05:40:00Z,44489,9302001,WEST CHEDABUCTO BAY,0,45.48687,-61.14100000000001,18,2022-10-25T05:40:00.000Z,110,2022-10-25T05:43:36.597Z,45.48727,100,-61.1412,100,13.2,100,13.8,100,12.5,100,0.0,100,3.6,100,,-1,,-1,,-1,,-1,,-1,,-1,,-1,,-1,1026.8,100,7.2,100,119,100,8.6,100,5,100,6,1,-1.4,1,1026.8,1,1026.8,100,1026.8,100,7.2,100,6.8,100,119,100,121,100,8.6,100,8.6,100
2022-10-25T05:50:00Z,44489,9302001,WEST CHEDABUCTO BAY,0,45.48687,-61.14100000000001,18,2022-10-25T05:50:00.000Z,110,2022-10-25T05:52:39.936Z,45.48723,100,-61.14118000000001,100,13.2,100,13.8,100,12.5,100,0.0,100,3.6,100,,-1,,-1,,-1,,-1,,-1,,-1,,-1,,-1,1026.8,100,6.8,100,120,100,8.3,100,5,100,6,1,-1.4,1,1026.8,1,1026.8,100,1026.8,100,6.8,100,6.5,100,120,100,122,100,8.3,100,8.3,100
2022-10-25T06:00:00Z,44489,9302001,WEST CHEDABUCTO BAY,0,45.48687,-61.14100000000001,18,2022-10-25T06:00:00.000Z,108,2022-10-25T06:02:46.200Z,45.48725,100,-61.14117,100,13.3,100,13.8,100,12.4,100,0.0,100,3.6,100,0.1,100,0.3,100,7.4,100,0.2,100,0.3,100,7.4,100,4.9,100,9.5,100,1026.8,100,6.1,100,127,100,7.9,100,5,100,5,1,-1.3,1,1026.8,1,1026.8,100,1026.8,100,6.1,100,5.8,100,127,100,130,100,7.9,100,7.6,100
2022-10-25T06:10:00Z,44489,9302001,WEST CHEDABUCTO BAY,0,45.48687,-61.14100000000001,18,2022-10-25T06:10:00.000Z,110,2022-10-25T06:15:53.021Z,45.48727,100,-61.141169999999995,100,13.3,100,13.8,100,12.5,100,0.0,100,3.6,100,,-1,,-1,,-1,,-1,,-1,,-1,,-1,,-1,1026.8,100,4.7,100,85,100,5.8,100,5,100,5,1,-1.2,1,1026.8,1,1026.8,100,1026.8,100,4.7,100,4.3,100,85,100,88,100,5.8,100,5.4,100
2022-10-25T06:20:00Z,44489,9302001,WEST CHEDABUCTO BAY,0,45.48687,-61.14100000000001,18,2022-10-25T06:20:00.000Z,110,2022-10-25T06:22:52.730Z,45.48725,100,-61.14118000000001,100,13.3,100,13.8,100,12.5,100,0.0,100,3.6,100,,-1,,-1,,-1,,-1,,-1,,-1,,-1,,-1,1026.7,100,6.5,100,101,100,9.0,100,5,100,6,1,-1.2,1,1026.7,1,1026.7,100,1026.8,100,6.5,100,6.1,100,101,100,104,100,9.0,100,8.6,100
2022-10-25T06:30:00Z,44489,9302001,WEST CHEDABUCTO BAY,0,45.48687,-61.14100000000001,18,2022-10-25T06:30:00.000Z,110,2022-10-25T06:32:54.195Z,45.48725,100,-61.14118000000001,100,13.2,100,13.8,100,12.5,100,0.0,100,3.6,100,,-1,,-1,,-1,,-1,,-1,,-1,,-1,,-1,1026.6,100,8.6,100,89,100,10.4,100,5,100,6,1,-1.1,1,1026.6,1,1026.6,100,1026.6,100,8.6,100,7.9,100,89,100,91,100,10.4,100,9.7,100
2022-10-25T06:40:00Z,44489,9302001,WEST CHEDABUCTO BAY,0,45.48687,-61.14100000000001,18,2022-10-25T06:40:00.000Z,110,2022-10-25T06:42:56.624Z,45.48723,100,-61.14117,100,13.2,100,13.8,100,12.4,100,0.0,100,3.6,100,,-1,,-1,,-1,,-1,,-1,,-1,,-1,,-1,1026.5,100,10.1,100,87,100,11.5,100,5,100,6,1,-1.3,1,1026.5,1,1026.5,100,1026.5,100,10.1,100,9.0,100,87,100,88,100,11.5,100,11.5,100
2022-10-25T06:50:00Z,44489,9302001,WEST CHEDABUCTO BAY,0,45.48687,-61.14100000000001,18,2022-10-25T06:50:00.000Z,110,2022-10-25T06:53:56.361Z,45.48725,100,-61.141169999999995,100,13.2,100,13.8,100,12.4,100,0.0,100,3.6,100,,-1,,-1,,-1,,-1,,-1,,-1,,-1,,-1,1026.3,100,9.0,100,72,100,10.8,100,5,100,6,1,-1.4,1,1026.3,1,1026.3,100,1026.3,100,9.0,100,7.9,100,72,100,73,100,10.8,100,10.4,100
2022-10-25T07:00:00Z,44489,9302001,WEST CHEDABUCTO BAY,0,45.48687,-61.14100000000001,18,2022-10-25T07:00:00.000Z,108,2022-10-25T07:02:57.868Z,45.48725,100,-61.1412,100,13.2,100,13.8,100,12.4,100,0.0,100,3.6,100,0.1,100,0.3,100,7.0,100,0.2,100,0.2,100,7.1,100,5.1,100,9.5,100,1026.4,100,7.9,100,47,100,10.1,100,5,100,6,1,-1.5,1,1026.4,1,1026.4,100,1026.4,100,7.9,100,7.9,100,47,100,51,100,10.1,100,10.1,100
2022-10-25T07:10:00Z,44489,9302001,WEST CHEDABUCTO BAY,0,45.48687,-61.14100000000001,18,2022-10-25T07:10:00.000Z,110,2022-10-25T07:16:03.409Z,45.48725,100,-61.14118000000001,100,13.3,100,13.8,100,12.5,100,0.0,100,3.6,100,,-1,,-1,,-1,,-1,,-1,,-1,,-1,,-1,1026.1,100,9.7,100,62,100,11.5,100,5,100,6,1,-2.1,1,1026.1,1,1026.1,100,1026.1,100,9.7,100,9.4,100,62,100,65,100,11.5,100,11.2,100
2022-10-25T07:20:00Z,44489,9302001,WEST CHEDABUCTO BAY,0,45.48687,-61.14100000000001,18,2022-10-25T07:20:00.000Z,110,2022-10-25T07:23:08.451Z,45.48725,100,-61.14118000000001,100,13.3,100,13.8,100,12.5,100,0.0,100,3.6,100,,-1,,-1,,-1,,-1,,-1,,-1,,-1,,-1,1025.8,100,11.5,100,75,100,13.7,100,5,100,7,1,-1.8,1,1025.8,1,1025.8,100,1025.8,100,11.5,100,10.4,100,75,100,76,100,13.7,100,13.3,100
2022-10-25T07:30:00Z,44489,9302001,WEST CHEDABUCTO BAY,0,45.48687,-61.14100000000001,18,2022-10-25T07:30:00.000Z,110,2022-10-25T07:33:06.271Z,45.48725,100,-61.1412,100,13.3,100,13.8,100,12.4,100,0.0,100,3.6,100,,-1,,-1,,-1,,-1,,-1,,-1,,-1,,-1,1025.7,100,12.2,100,85,100,14.8,100,5,100,8,1,-1.4,1,1025.7,1,1025.7,100,1025.7,100,12.2,100,10.8,100,85,100,86,100,14.8,100,14.0,100
2022-10-25T07:40:00Z,44489,9302001,WEST CHEDABUCTO BAY,0,45.48687,-61.14100000000001,18,2022-10-25T07:40:00.000Z,110,2022-10-25T07:43:11.863Z,45.48723,100,-61.14117,100,13.3,100,13.8,100,12.4,100,0.0,100,3.6,100,,-1,,-1,,-1,,-1,,-1,,-1,,-1,,-1,1025.8,100,10.8,100,74,100,13.3,100,5,100,8,1,-1.3,1,1025.8,1,1025.8,100,1025.8,100,10.8,100,9.4,100,74,100,75,100,13.3,100,13.3,100
2022-10-25T07:50:00Z,44489,9302001,WEST CHEDABUCTO BAY,0,45.48687,-61.14100000000001,18,2022-10-25T07:50:00.000Z,110,2022-10-25T07:53:11.171Z,45.48723,100,-61.141169999999995,100,13.3,100,13.8,100,12.4,100,0.0,100,3.6,100,,-1,,-1,,-1,,-1,,-1,,-1,,-1,,-1,1025.7,100,10.8,100,78,100,15.1,100,5,100,8,1,-1.1,1,1025.7,1,1025.7,100,1025.7,100,10.8,100,9.7,100,78,100,80,100,15.1,100,14.0,100
2022-10-25T08:00:00Z,44489,9302001,WEST CHEDABUCTO BAY,0,45.48687,-61.14100000000001,18,2022-10-25T08:00:00.000Z,108,2022-10-25T08:03:10.680Z,45.48725,100,-61.14122,100,13.1,100,13.8,100,12.4,100,0.0,100,3.6,100,0.1,100,0.3,100,7.1,100,0.2,100,0.2,100,7.4,100,5.0,100,10.5,100,1025.4,100,13.3,100,84,100,15.5,100,5,100,8,1,-1.3,1,1025.4,1,1025.4,100,1025.4,100,13.3,100,12.6,100,84,100,85,100,15.5,100,15.5,100
2022-10-25T08:10:00Z,44489,9302001,WEST CHEDABUCTO BAY,0,45.48687,-61.14100000000001,18,2022-10-25T08:10:00.000Z,110,2022-10-25T08:16:23.362Z,45.48723,100,-61.14118000000001,100,13.2,100,13.8,100,12.4,100,0.0,100,3.6,100,,-1,,-1,,-1,,-1,,-1,,-1,,-1,,-1,1025.4,100,12.6,100,78,100,14.4,100,5,100,8,1,-1.3,1,1025.4,1,1025.4,100,1025.4,100,12.6,100,11.5,100,78,100,80,100,14.4,100,14.4,100
2022-10-25T08:20:00Z,44489,9302001,WEST CHEDABUCTO BAY,0,45.48687,-61.14100000000001,18,2022-10-25T08:20:00.000Z,110,2022-10-25T08:23:29.093Z,45.48727,100,-61.14123000000001,100,13.2,100,13.8,100,12.4,100,0.0,100,3.6,100,,-1,,-1,,-1,,-1,,-1,,-1,,-1,,-1,1025.5,100,13.7,100,85,100,15.8,100,5,100,8,1,-1.2,1,1025.5,1,1025.5,100,1025.5,100,13.7,100,13.3,100,85,100,87,100,15.8,100,15.5,100
2022-10-25T08:30:00Z,44489,9302001,WEST CHEDABUCTO BAY,0,45.48687,-61.14100000000001,18,2022-10-25T08:30:00.000Z,110,2022-10-25T08:36:36.236Z,45.48725,100,-61.1412,100,13.2,100,13.8,100,12.4,100,0.0,100,3.6,100,,-1,,-1,,-1,,-1,,-1,,-1,,-1,,-1,1025.6,100,13.0,100,86,100,15.5,100,5,100,7,1,-1.2,1,1025.6,1,1025.6,100,1025.6,100,13.0,100,12.2,100,86,100,88,100,15.5,100,15.5,100
2022-10-25T08:40:00Z,44489,9302001,WEST CHEDABUCTO BAY,0,45.48687,-61.14100000000001,18,2022-10-25T08:40:00.000Z,110,2022-10-25T08:43:29.364Z,45.48725,100,-61.14122,100,13.2,100,13.8,100,12.4,100,0.0,100,3.6,100,,-1,,-1,,-1,,-1,,-1,,-1,,-1,,-1,1025.8,100,10.1,100,76,100,12.2,100,5,100,6,1,-1.0,1,1025.8,1,1025.8,100,1025.8,100,10.1,100,9.0,100,76,100,78,100,12.2,100,10.8,100
2022-10-25T08:50:00Z,44489,9302001,WEST CHEDABUCTO BAY,0,45.48687,-61.14100000000001,18,2022-10-25T08:50:00.000Z,110,2022-10-25T08:53:28.824Z,45.48727,100,-61.14122,100,13.2,100,13.8,100,12.4,100,0.0,100,3.6,100,,-1,,-1,,-1,,-1,,-1,,-1,,-1,,-1,1025.7,100,11.5,100,77,100,13.3,100,5,100,6,1,-1.1,1,1025.7,1,1025.7,100,1025.7,100,11.5,100,10.4,100,77,100,79,100,13.3,100,12.2,100
2022-10-25T09:00:00Z,44489,9302001,WEST CHEDABUCTO BAY,0,45.48687,-61.14100000000001,18,2022-10-25T09:00:00.000Z,108,2022-10-25T09:03:36.057Z,45.48727,100,-61.14123000000001,100,13.2,100,13.8,100,12.4,100,0.0,100,3.6,100,0.1,100,0.3,100,6.8,100,0.2,100,0.3,100,7.5,100,4.4,100,10.0,100,1025.5,100,14.0,100,84,100,16.6,100,5,100,6,1,-1.3,1,1025.5,1,1025.5,100,1025.5,100,14.0,100,13.3,100,84,100,86,100,16.6,100,15.8,100
2022-10-25T09:10:00Z,44489,9302001,WEST CHEDABUCTO BAY,0,45.48687,-61.14100000000001,18,2022-10-25T09:10:00.000Z,110,2022-10-25T09:16:42.730Z,45.48727,100,-61.14122,100,13.2,100,13.8,100,12.4,100,0.0,100,3.6,100,,-1,,-1,,-1,,-1,,-1,,-1,,-1,,-1,1025.3,100,15.5,100,88,100,19.1,100,5,100,6,1,-1.5,1,1025.3,1,1025.3,100,1025.3,100,15.5,100,14.8,100,88,100,90,100,19.1,100,18.7,100
2022-10-25T09:20:00Z,44489,9302001,WEST CHEDABUCTO BAY,0,45.48687,-61.14100000000001,18,2022-10-25T09:20:00.000Z,110,2022-10-25T09:22:36.383Z,45.48727,100,-61.14122,100,13.2,100,13.8,100,12.4,100,0.0,100,3.6,100,,-1,,-1,,-1,,-1,,-1,,-1,,-1,,-1,1025.3,100,15.5,100,86,100,18.7,100,5,100,6,1,-1.4,1,1025.3,1,1025.3,100,1025.3,100,15.5,100,14.8,100,86,100,88,100,18.7,100,18.4,100